Time,TemperatureF,DewpointF,PressureIn,WindDirection,WindDirectionDegrees,WindSpeedMPH,WindSpeedGustMPH,Humidity,HourlyPrecipIn,Conditions,Clouds,dailyrainin,SoftwareType,DateUTC
2013-12-12 00:00:00,24.3,22.3,30.62,NE,35,0.0,0.0,92,0.00,,---,0.00,VWS V14.01,2013-12-12 06:00:00,
2013-12-12 00:01:00,24.3,22.3,30.62,NE,35,0.0,0.0,92,0.00,,---,0.00,VWS V14.01,2013-12-12 06:01:00,
2013-12-12 00:05:00,24.3,22.3,30.62,NE,35,0.0,0.0,92,0.00,,---,0.00,VWS V14.01,2013-12-12 06:05:00,
2013-12-12 00:08:00,24.3,22.3,30.62,NE,35,0.0,0.0,92,0.00,,---,0.00,VWS V14.01,2013-12-12 06:08:00,
2013-12-12 00:11:00,24.4,22.4,30.62,NE,35,0.0,0.0,92,0.00,,---,0.00,VWS V14.01,2013-12-12 06:11:00,
2013-12-12 00:14:00,24.3,22.3,30.62,NE,35,0.0,0.0,92,0.00,,---,0.00,VWS V14.01,2013-12-12 06:14:00,
2013-12-12 00:17:00,24.2,22.2,30.62,NE,35,0.0,0.0,92,0.00,,---,0.00,VWS V14.01,2013-12-12 06:17:00,
2013-12-12 00:20:00,24.1,22.1,30.62,NE,35,0.0,0.0,92,0.00,,---,0.00,VWS V14.01,2013-12-12 06:20:00,
2013-12-12 00:23:00,24.0,22.0,30.62,NE,35,0.0,0.0,92,0.00,,---,0.00,VWS V14.01,2013-12-12 06:23:00,
2013-12-12 00:26:00,24.0,22.0,30.62,NE,35,0.0,0.0,92,0.00,,---,0.00,VWS V14.01,2013-12-12 06:26:00,
2013-12-12 00:29:00,23.9,21.9,30.62,NE,35,0.0,0.0,92,0.00,,---,0.00,VWS V14.01,2013-12-12 06:29:00,
2013-12-12 00:30:00,23.9,21.9,30.62,NE,35,0.0,0.0,92,0.00,,---,0.00,VWS V14.01,2013-12-12 06:30:00,
2013-12-12 00:32:00,23.9,21.9,30.62,NE,35,0.0,0.0,92,0.00,,---,0.00,VWS V14.01,2013-12-12 06:32:00,
2013-12-12 00:35:00,23.8,21.8,30.62,NE,35,0.0,0.0,92,0.00,,---,0.00,VWS V14.01,2013-12-12 06:35:00,
2013-12-12 00:38:00,23.8,21.8,30.62,NE,35,0.0,0.0,92,0.00,,---,0.00,VWS V14.01,2013-12-12 06:38:00,
2013-12-12 00:50:00,23.7,21.7,30.61,NE,35,0.0,0.0,92,0.00,,---,0.00,VWS V14.01,2013-12-12 06:50:00,
2013-12-12 00:53:00,23.6,21.6,30.62,NE,35,0.0,0.0,92,0.00,,---,0.00,VWS V14.01,2013-12-12 06:53:00,
2013-12-12 00:59:00,23.5,21.5,30.62,NE,35,0.0,0.0,92,0.00,,---,0.00,VWS V14.01,2013-12-12 06:59:00,
2013-12-12 01:02:00,23.5,21.5,30.62,NE,35,0.0,0.0,92,0.00,,---,0.00,VWS V14.01,2013-12-12 07:02:00,
2013-12-12 01:05:00,23.5,21.5,30.62,NE,35,0.0,0.0,92,0.00,,---,0.00,VWS V14.01,2013-12-12 07:05:00,
2013-12-12 01:08:00,23.4,21.4,30.62,NE,35,0.0,0.0,92,0.00,,---,0.00,VWS V14.01,2013-12-12 07:08:00,
2013-12-12 01:11:00,23.4,21.4,30.62,NE,35,0.0,0.0,92,0.00,,---,0.00,VWS V14.01,2013-12-12 07:11:00,
2013-12-12 01:17:00,23.4,21.4,30.61,NE,35,0.0,0.0,92,0.00,,---,0.00,VWS V14.01,2013-12-12 07:17:00,
2013-12-12 01:20:00,23.3,21.3,30.61,NE,35,0.0,0.0,92,0.00,,---,0.00,VWS V14.01,2013-12-12 07:20:00,
2013-12-12 01:26:00,22.9,20.9,30.61,NE,35,0.0,0.0,92,0.00,,---,0.00,VWS V14.01,2013-12-12 07:26:00,
2013-12-12 01:29:00,22.5,20.3,30.61,NE,35,0.0,0.0,91,0.00,,---,0.00,VWS V14.01,2013-12-12 07:29:00,
2013-12-12 01:30:00,22.5,20.3,30.61,NE,35,0.0,0.0,91,0.00,,---,0.00,VWS V14.01,2013-12-12 07:30:00,
2013-12-12 01:32:00,22.2,20.0,30.61,NE,35,0.0,0.0,91,0.00,,---,0.00,VWS V14.01,2013-12-12 07:32:00,
2013-12-12 01:35:00,22.1,19.9,30.61,NE,35,0.0,0.0,91,0.00,,---,0.00,VWS V14.01,2013-12-12 07:35:00,
2013-12-12 01:38:00,21.9,19.7,30.61,NE,35,0.0,0.0,91,0.00,,---,0.00,VWS V14.01,2013-12-12 07:38:00,
2013-12-12 01:40:00,23.8,21.8,30.62,NE,35,0.0,0.0,92,0.00,,---,0.00,VWS V14.01,2013-12-12 07:40:00,
2013-12-12 01:41:00,21.8,19.6,30.61,NE,35,0.0,0.0,91,0.00,,---,0.00,VWS V14.01,2013-12-12 07:41:00,
2013-12-12 01:44:00,21.8,19.6,30.61,NE,35,0.0,0.0,91,0.00,,---,0.00,VWS V14.01,2013-12-12 07:44:00,
2013-12-12 01:46:00,23.7,21.7,30.62,NE,35,0.0,0.0,92,0.00,,---,0.00,VWS V14.01,2013-12-12 07:46:00,
2013-12-12 01:47:00,21.9,19.9,30.61,NE,35,0.0,0.0,92,0.00,,---,0.00,VWS V14.01,2013-12-12 07:47:00,
2013-12-12 01:50:00,22.0,20.0,30.62,NE,35,0.0,0.0,92,0.00,,---,0.00,VWS V14.01,2013-12-12 07:50:00,
2013-12-12 01:53:00,22.1,20.1,30.61,NE,35,0.0,0.0,92,0.00,,---,0.00,VWS V14.01,2013-12-12 07:53:00,
2013-12-12 01:55:00,23.5,21.5,30.62,NE,35,0.0,0.0,92,0.00,,---,0.00,VWS V14.01,2013-12-12 07:55:00,
2013-12-12 01:56:00,22.1,20.1,30.61,NE,35,0.0,0.0,92,0.00,,---,0.00,VWS V14.01,2013-12-12 07:56:00,
2013-12-12 01:59:00,22.2,20.2,30.62,NE,35,0.0,0.0,92,0.00,,---,0.00,VWS V14.01,2013-12-12 07:59:00,
2013-12-12 02:00:00,22.1,20.1,30.62,NE,35,0.0,0.0,92,0.00,,---,0.00,VWS V14.01,2013-12-12 08:00:00,
2013-12-12 02:02:00,22.1,20.1,30.61,NE,35,0.0,0.0,92,0.00,,---,0.00,VWS V14.01,2013-12-12 08:02:00,
2013-12-12 02:08:00,21.6,19.4,30.62,NE,35,0.0,0.0,91,0.00,,---,0.00,VWS V14.01,2013-12-12 08:08:00,
2013-12-12 02:11:00,21.4,19.2,30.62,NE,35,0.0,0.0,91,0.00,,---,0.00,VWS V14.01,2013-12-12 08:11:00,
2013-12-12 02:13:00,23.4,21.4,30.62,NE,35,0.0,0.0,92,0.00,,---,0.00,VWS V14.01,2013-12-12 08:13:00,
2013-12-12 02:14:00,21.3,19.1,30.62,NE,35,0.0,0.0,91,0.00,,---,0.00,VWS V14.01,2013-12-12 08:14:00,
2013-12-12 02:17:00,21.3,19.3,30.62,NE,35,0.0,0.0,92,0.00,,---,0.00,VWS V14.01,2013-12-12 08:17:00,
2013-12-12 02:21:00,21.3,19.3,30.62,NE,35,0.0,0.0,92,0.00,,---,0.00,VWS V14.01,2013-12-12 08:21:00,
2013-12-12 02:22:00,23.3,21.3,30.61,NE,35,0.0,0.0,92,0.00,,---,0.00,VWS V14.01,2013-12-12 08:22:00,
2013-12-12 02:24:00,21.3,19.3,30.62,NE,35,0.0,0.0,92,0.00,,---,0.00,VWS V14.01,2013-12-12 08:24:00,
2013-12-12 02:27:00,21.3,19.3,30.61,NE,35,0.0,0.0,92,0.00,,---,0.00,VWS V14.01,2013-12-12 08:27:00,
2013-12-12 02:30:00,21.5,19.5,30.61,NE,35,0.0,0.0,92,0.00,,---,0.00,VWS V14.01,2013-12-12 08:30:00,
2013-12-12 02:36:00,21.6,19.6,30.61,NE,35,0.0,0.0,92,0.00,,---,0.00,VWS V14.01,2013-12-12 08:36:00,
2013-12-12 02:39:00,21.6,19.6,30.61,NE,35,0.0,0.0,92,0.00,,---,0.00,VWS V14.01,2013-12-12 08:39:00,
2013-12-12 02:45:00,21.4,19.4,30.61,NE,35,0.0,0.0,92,0.00,,---,0.00,VWS V14.01,2013-12-12 08:45:00,
2013-12-12 02:48:00,21.2,19.2,30.61,NE,35,0.0,0.0,92,0.00,,---,0.00,VWS V14.01,2013-12-12 08:48:00,
2013-12-12 02:51:00,21.0,18.8,30.61,NE,35,0.0,0.0,91,0.00,,---,0.00,VWS V14.01,2013-12-12 08:51:00,
2013-12-12 02:54:00,20.8,18.9,30.61,NE,35,0.0,0.0,92,0.00,,---,0.00,VWS V14.01,2013-12-12 08:54:00,
2013-12-12 03:00:00,20.7,18.8,30.61,NE,35,0.0,0.0,92,0.00,,---,0.00,VWS V14.01,2013-12-12 09:00:00,
2013-12-12 03:04:00,21.9,19.9,30.61,NE,35,0.0,0.0,92,0.00,,---,0.00,VWS V14.01,2013-12-12 09:04:00,
2013-12-12 03:06:00,20.9,19.0,30.62,NE,35,0.0,0.0,92,0.00,,---,0.00,VWS V14.01,2013-12-12 09:06:00,
2013-12-12 03:12:00,20.8,18.9,30.62,NE,38,0.0,0.0,92,0.00,,---,0.00,VWS V14.01,2013-12-12 09:12:00,
2013-12-12 03:15:00,20.5,18.3,30.62,NE,38,0.0,0.0,91,0.00,,---,0.00,VWS V14.01,2013-12-12 09:15:00,
2013-12-12 03:30:00,20.3,18.4,30.61,NE,38,0.0,0.0,92,0.00,,---,0.00,VWS V14.01,2013-12-12 09:30:00,
2013-12-12 03:32:00,21.6,19.6,30.61,NE,35,0.0,0.0,92,0.00,,---,0.00,VWS V14.01,2013-12-12 09:32:00,
2013-12-12 03:36:00,20.0,17.8,30.61,NE,39,0.0,0.0,91,0.00,,---,0.00,VWS V14.01,2013-12-12 09:36:00,
2013-12-12 03:41:00,21.5,19.5,30.61,NE,35,0.0,0.0,92,0.00,,---,0.00,VWS V14.01,2013-12-12 09:41:00,
2013-12-12 03:42:00,19.9,17.7,30.61,NE,39,0.0,0.0,91,0.00,,---,0.00,VWS V14.01,2013-12-12 09:42:00,
2013-12-12 03:45:00,19.9,18.0,30.60,NE,39,0.0,0.0,92,0.00,,---,0.00,VWS V14.01,2013-12-12 09:45:00,
2013-12-12 03:54:00,20.0,18.0,30.61,NE,39,0.0,0.0,92,0.00,,---,0.00,VWS V14.01,2013-12-12 09:54:00,
2013-12-12 03:56:00,20.8,18.9,30.61,NE,35,0.0,0.0,92,0.00,,---,0.00,VWS V14.01,2013-12-12 09:56:00,
2013-12-12 03:57:00,20.0,18.0,30.61,NE,39,0.0,0.0,92,0.00,,---,0.00,VWS V14.01,2013-12-12 09:57:00,
2013-12-12 04:00:00,20.0,18.0,30.61,NE,39,0.0,0.0,92,0.00,,---,0.00,VWS V14.01,2013-12-12 10:00:00,
2013-12-12 04:02:00,20.9,19.0,30.61,NE,35,0.0,0.0,92,0.00,,---,0.00,VWS V14.01,2013-12-12 10:02:00,
2013-12-12 04:08:00,21.0,19.0,30.61,NE,35,0.0,0.0,92,0.00,,---,0.00,VWS V14.01,2013-12-12 10:08:00,
2013-12-12 04:15:00,19.8,17.9,30.61,NE,39,0.0,0.0,92,0.00,,---,0.00,VWS V14.01,2013-12-12 10:15:00,
2013-12-12 04:17:00,20.2,18.0,30.62,NE,38,0.0,0.0,91,0.00,,---,0.00,VWS V14.01,2013-12-12 10:17:00,
2013-12-12 04:21:00,19.3,17.1,30.61,NE,39,0.0,0.0,91,0.00,,---,0.00,VWS V14.01,2013-12-12 10:21:00,
2013-12-12 04:23:00,20.2,18.2,30.61,NE,38,0.0,0.0,92,0.00,,---,0.00,VWS V14.01,2013-12-12 10:23:00,
2013-12-12 04:27:00,19.0,16.8,30.61,South,176,0.0,0.0,91,0.00,,---,0.00,VWS V14.01,2013-12-12 10:27:00,
2013-12-12 04:29:00,20.3,18.4,30.61,NE,38,0.0,0.0,92,0.00,,---,0.00,VWS V14.01,2013-12-12 10:29:00,
2013-12-12 04:30:00,19.0,16.8,30.61,South,176,0.0,0.0,91,0.00,,---,0.00,VWS V14.01,2013-12-12 10:30:00,
2013-12-12 04:32:00,20.1,18.1,30.61,NE,39,0.0,0.0,92,0.00,,---,0.00,VWS V14.01,2013-12-12 10:32:00,
2013-12-12 04:38:00,19.9,17.7,30.61,NE,39,0.0,0.0,91,0.00,,---,0.00,VWS V14.01,2013-12-12 10:38:00,
2013-12-12 04:47:00,19.9,18.0,30.60,NE,39,0.0,0.0,92,0.00,,---,0.00,VWS V14.01,2013-12-12 10:47:00,
2013-12-12 04:49:00,19.4,17.5,30.61,South,176,0.0,0.0,92,0.00,,---,0.00,VWS V14.01,2013-12-12 10:49:00,
2013-12-12 04:50:00,19.9,18.0,30.61,NE,39,0.0,0.0,92,0.00,,---,0.00,VWS V14.01,2013-12-12 10:50:00,
2013-12-12 04:58:00,19.4,17.5,30.60,South,176,0.0,0.0,92,0.00,,---,0.00,VWS V14.01,2013-12-12 10:58:00,
2013-12-12 04:59:00,20.0,18.0,30.61,NE,39,0.0,0.0,92,0.00,,---,0.00,VWS V14.01,2013-12-12 10:59:00,
2013-12-12 05:05:00,20.1,18.1,30.61,NE,39,0.0,0.0,92,0.00,,---,0.00,VWS V14.01,2013-12-12 11:05:00,
2013-12-12 05:07:00,19.5,17.6,30.62,South,176,0.0,0.0,92,0.00,,---,0.00,VWS V14.01,2013-12-12 11:07:00,
2013-12-12 05:11:00,19.9,18.0,30.61,NE,39,0.0,0.0,92,0.00,,---,0.00,VWS V14.01,2013-12-12 11:11:00,
2013-12-12 05:17:00,19.5,17.3,30.61,NE,39,0.0,0.0,91,0.00,,---,0.00,VWS V14.01,2013-12-12 11:17:00,
2013-12-12 05:23:00,19.1,16.9,30.61,NE,39,0.0,0.0,91,0.00,,---,0.00,VWS V14.01,2013-12-12 11:23:00,
2013-12-12 05:28:00,20.0,18.0,30.61,South,176,0.0,1.0,92,0.00,,---,0.00,VWS V14.01,2013-12-12 11:28:00,
2013-12-12 05:30:00,19.0,16.8,30.61,South,176,0.0,0.0,91,0.00,,---,0.00,VWS V14.01,2013-12-12 11:30:00,
2013-12-12 05:31:00,19.9,18.0,30.61,South,176,0.0,0.0,92,0.00,,---,0.00,VWS V14.01,2013-12-12 11:31:00,
2013-12-12 05:33:00,19.1,17.2,30.61,South,176,0.0,0.0,92,0.00,,---,0.00,VWS V14.01,2013-12-12 11:33:00,
2013-12-12 05:36:00,19.3,17.4,30.61,South,176,0.0,0.0,92,0.00,,---,0.00,VWS V14.01,2013-12-12 11:36:00,
2013-12-12 05:39:00,19.3,17.4,30.60,South,176,0.0,0.0,92,0.00,,---,0.00,VWS V14.01,2013-12-12 11:39:00,
2013-12-12 05:40:00,19.7,17.8,30.61,South,176,0.0,0.0,92,0.00,,---,0.00,VWS V14.01,2013-12-12 11:40:00,
2013-12-12 05:42:00,19.3,17.4,30.60,South,176,0.0,0.0,92,0.00,,---,0.00,VWS V14.01,2013-12-12 11:42:00,
2013-12-12 05:45:00,19.4,17.5,30.61,South,176,0.0,0.0,92,0.00,,---,0.00,VWS V14.01,2013-12-12 11:45:00,
2013-12-12 05:51:00,19.5,17.6,30.60,South,176,0.0,0.0,92,0.00,,---,0.00,VWS V14.01,2013-12-12 11:51:00,
2013-12-12 05:54:00,19.5,17.6,30.60,South,176,0.0,0.0,92,0.00,,---,0.00,VWS V14.01,2013-12-12 11:54:00,
2013-12-12 06:00:00,19.5,17.6,30.61,South,176,0.0,0.0,92,0.00,,---,0.00,VWS V14.01,2013-12-12 12:00:00,
2013-12-12 06:03:00,19.4,17.5,30.61,South,176,0.0,0.0,92,0.00,,---,0.00,VWS V14.01,2013-12-12 12:03:00,
2013-12-12 06:09:00,19.7,17.8,30.62,South,176,0.0,1.0,92,0.00,,---,0.00,VWS V14.01,2013-12-12 12:09:00,
2013-12-12 06:15:00,19.7,17.8,30.61,South,176,0.0,1.0,92,0.00,,---,0.00,VWS V14.01,2013-12-12 12:15:00,
2013-12-12 06:18:00,19.7,17.8,30.61,South,176,0.0,1.0,92,0.00,,---,0.00,VWS V14.01,2013-12-12 12:18:00,
2013-12-12 06:21:00,19.8,17.9,30.61,South,176,0.0,1.0,92,0.00,,---,0.00,VWS V14.01,2013-12-12 12:21:00,
2013-12-12 06:24:00,19.9,18.2,30.61,South,176,0.0,1.0,93,0.00,,---,0.00,VWS V14.01,2013-12-12 12:24:00,
2013-12-12 06:28:00,18.5,16.3,30.61,South,176,0.0,0.0,91,0.00,,---,0.00,VWS V14.01,2013-12-12 12:28:00,
2013-12-12 06:29:00,20.0,18.0,30.61,South,176,0.0,1.0,92,0.00,,---,0.00,VWS V14.01,2013-12-12 12:29:00,
2013-12-12 06:33:00,19.8,17.9,30.61,South,176,0.0,0.0,92,0.00,,---,0.00,VWS V14.01,2013-12-12 12:33:00,
2013-12-12 06:36:00,19.7,17.8,30.61,South,176,0.0,0.0,92,0.00,,---,0.00,VWS V14.01,2013-12-12 12:36:00,
2013-12-12 06:42:00,19.7,17.8,30.61,South,176,0.0,0.0,92,0.00,,---,0.00,VWS V14.01,2013-12-12 12:42:00,
2013-12-12 06:43:00,18.5,16.6,30.61,South,176,0.0,0.0,92,0.00,,---,0.00,VWS V14.01,2013-12-12 12:43:00,
2013-12-12 06:45:00,19.8,17.9,30.61,South,176,0.0,0.0,92,0.00,,---,0.00,VWS V14.01,2013-12-12 12:45:00,
2013-12-12 06:48:00,19.7,17.8,30.61,South,176,0.0,0.0,92,0.00,,---,0.00,VWS V14.01,2013-12-12 12:48:00,
2013-12-12 06:51:00,19.6,17.7,30.61,South,176,0.0,0.0,92,0.00,,---,0.00,VWS V14.01,2013-12-12 12:51:00,
2013-12-12 06:54:00,19.5,17.6,30.61,South,176,0.0,0.0,92,0.00,,---,0.00,VWS V14.01,2013-12-12 12:54:00,
2013-12-12 06:57:00,19.3,17.1,30.61,South,176,0.0,0.0,91,0.00,,---,0.00,VWS V14.01,2013-12-12 12:57:00,
2013-12-12 06:59:00,20.0,18.3,30.62,South,176,0.0,2.0,93,0.00,,---,0.00,VWS V14.01,2013-12-12 12:59:00,
2013-12-12 07:03:00,19.0,16.8,30.61,South,176,0.0,0.0,91,0.00,,---,0.00,VWS V14.01,2013-12-12 13:03:00,
2013-12-12 07:06:00,19.0,16.8,30.61,South,176,0.0,0.0,91,0.00,,---,0.00,VWS V14.01,2013-12-12 13:06:00,
2013-12-12 07:12:00,18.9,17.0,30.62,South,176,0.0,0.0,92,0.00,,---,0.00,VWS V14.01,2013-12-12 13:12:00,
2013-12-12 07:15:00,18.9,17.0,30.62,South,176,0.0,0.0,92,0.00,,---,0.00,VWS V14.01,2013-12-12 13:15:00,
2013-12-12 07:18:00,18.9,17.0,30.62,South,176,0.0,0.0,92,0.00,,---,0.00,VWS V14.01,2013-12-12 13:18:00,
2013-12-12 07:24:00,18.6,16.4,30.61,South,176,0.0,0.0,91,0.00,,---,0.00,VWS V14.01,2013-12-12 13:24:00,
2013-12-12 07:29:00,18.5,16.3,30.61,South,176,0.0,0.0,91,0.00,,---,0.00,VWS V14.01,2013-12-12 13:29:00,
2013-12-12 07:30:00,18.3,16.1,30.61,South,176,0.0,0.0,91,0.00,,---,0.00,VWS V14.01,2013-12-12 13:30:00,
2013-12-12 07:33:00,18.2,16.0,30.61,South,176,0.0,0.0,91,0.00,,---,0.00,VWS V14.01,2013-12-12 13:33:00,
2013-12-12 07:36:00,18.1,15.9,30.61,South,176,0.0,0.0,91,0.00,,---,0.00,VWS V14.01,2013-12-12 13:36:00,
2013-12-12 07:39:00,18.3,16.1,30.61,South,176,0.0,0.0,91,0.00,,---,0.00,VWS V14.01,2013-12-12 13:39:00,
2013-12-12 07:46:00,18.7,16.8,30.61,South,176,2.0,2.0,92,0.00,,---,0.00,VWS V14.01,2013-12-12 13:46:00,
2013-12-12 07:52:00,19.5,17.6,30.61,South,176,0.0,2.0,92,0.00,,---,0.00,VWS V14.01,2013-12-12 13:52:00,
2013-12-12 07:55:00,19.8,18.1,30.62,South,176,0.0,2.0,93,0.00,,---,0.00,VWS V14.01,2013-12-12 13:55:00,
2013-12-12 07:59:00,20.1,18.1,30.62,South,176,0.0,2.0,92,0.00,,---,0.00,VWS V14.01,2013-12-12 13:59:00,
2013-12-12 08:01:00,20.3,18.4,30.62,South,176,0.0,2.0,92,0.00,,---,0.00,VWS V14.01,2013-12-12 14:01:00,
2013-12-12 08:04:00,20.5,18.8,30.62,South,176,1.0,2.0,93,0.00,,---,0.00,VWS V14.01,2013-12-12 14:04:00,
2013-12-12 08:07:00,20.8,18.9,30.62,South,176,1.0,2.0,92,0.00,,---,0.00,VWS V14.01,2013-12-12 14:07:00,
2013-12-12 08:10:00,21.1,19.4,30.62,South,176,0.0,2.0,93,0.00,,---,0.00,VWS V14.01,2013-12-12 14:10:00,
2013-12-12 08:16:00,21.7,20.0,30.62,South,176,0.0,2.0,93,0.00,,---,0.00,VWS V14.01,2013-12-12 14:16:00,
2013-12-12 08:19:00,22.1,20.4,30.62,South,176,0.0,2.0,93,0.00,,---,0.00,VWS V14.01,2013-12-12 14:19:00,
2013-12-12 08:22:00,22.5,20.8,30.62,South,176,0.0,2.0,93,0.00,,---,0.00,VWS V14.01,2013-12-12 14:22:00,
2013-12-12 08:25:00,22.7,21.0,30.62,South,176,0.0,2.0,93,0.00,,---,0.00,VWS V14.01,2013-12-12 14:25:00,
2013-12-12 08:28:00,22.9,20.9,30.62,South,176,0.0,2.0,92,0.00,,---,0.00,VWS V14.01,2013-12-12 14:28:00,
2013-12-12 08:31:00,23.3,21.6,30.62,South,176,0.0,0.0,93,0.00,,---,0.00,VWS V14.01,2013-12-12 14:31:00,
2013-12-12 08:37:00,24.2,22.5,30.62,South,176,0.0,0.0,93,0.00,,---,0.00,VWS V14.01,2013-12-12 14:37:00,
2013-12-12 08:40:00,24.5,22.8,30.62,South,176,0.0,0.0,93,0.00,,---,0.00,VWS V14.01,2013-12-12 14:40:00,
2013-12-12 08:43:00,24.8,23.1,30.62,South,176,0.0,0.0,93,0.00,,---,0.00,VWS V14.01,2013-12-12 14:43:00,
2013-12-12 08:46:00,25.3,23.6,30.62,South,176,0.0,0.0,93,0.00,,---,0.00,VWS V14.01,2013-12-12 14:46:00,
2013-12-12 08:49:00,25.8,24.1,30.63,South,176,0.0,0.0,93,0.00,,---,0.00,VWS V14.01,2013-12-12 14:49:00,
2013-12-12 08:52:00,26.5,24.8,30.62,South,176,0.0,0.0,93,0.00,,---,0.00,VWS V14.01,2013-12-12 14:52:00,
2013-12-12 08:55:00,27.2,25.5,30.62,South,176,0.0,0.0,93,0.00,,---,0.00,VWS V14.01,2013-12-12 14:55:00,
2013-12-12 08:58:00,27.9,26.1,30.62,South,176,0.0,0.0,93,0.00,,---,0.00,VWS V14.01,2013-12-12 14:58:00,
2013-12-12 09:01:00,28.4,26.4,30.62,South,176,0.0,0.0,92,0.00,,---,0.00,VWS V14.01,2013-12-12 15:01:00,
2013-12-12 09:04:00,28.8,26.5,30.62,South,176,0.0,0.0,91,0.00,,---,0.00,VWS V14.01,2013-12-12 15:04:00,
2013-12-12 09:07:00,29.0,26.4,30.62,South,176,0.0,0.0,90,0.00,,---,0.00,VWS V14.01,2013-12-12 15:07:00,
2013-12-12 09:10:00,29.4,26.8,30.62,South,176,0.0,0.0,90,0.00,,---,0.00,VWS V14.01,2013-12-12 15:10:00,
2013-12-12 09:13:00,29.9,27.3,30.62,South,176,0.0,0.0,90,0.00,,---,0.00,VWS V14.01,2013-12-12 15:13:00,
2013-12-12 09:16:00,30.3,27.5,30.62,South,176,0.0,0.0,89,0.00,,---,0.00,VWS V14.01,2013-12-12 15:16:00,
2013-12-12 09:19:00,30.7,27.9,30.61,South,176,0.0,0.0,89,0.00,,---,0.00,VWS V14.01,2013-12-12 15:19:00,
2013-12-12 09:22:00,31.0,27.9,30.62,South,176,0.0,0.0,88,0.00,,---,0.00,VWS V14.01,2013-12-12 15:22:00,
2013-12-12 09:28:00,31.1,28.0,30.61,South,176,0.0,1.0,88,0.00,,---,0.00,VWS V14.01,2013-12-12 15:28:00,
2013-12-12 09:29:00,31.1,28.0,30.61,South,176,0.0,1.0,88,0.00,,---,0.00,VWS V14.01,2013-12-12 15:29:00,
2013-12-12 09:34:00,31.5,28.4,30.61,South,176,0.0,0.0,88,0.00,,---,0.00,VWS V14.01,2013-12-12 15:34:00,
2013-12-12 09:40:00,32.0,28.6,30.61,South,176,0.0,0.0,87,0.00,,---,0.00,VWS V14.01,2013-12-12 15:40:00,
2013-12-12 09:43:00,32.3,28.9,30.61,South,176,0.0,0.0,87,0.00,,---,0.00,VWS V14.01,2013-12-12 15:43:00,
2013-12-12 09:46:00,32.5,29.1,30.61,South,176,0.0,0.0,87,0.00,,---,0.00,VWS V14.01,2013-12-12 15:46:00,
2013-12-12 09:49:00,32.7,29.0,30.61,South,176,0.0,0.0,86,0.00,,---,0.00,VWS V14.01,2013-12-12 15:49:00,
2013-12-12 09:52:00,32.9,29.2,30.61,South,176,0.0,0.0,86,0.00,,---,0.00,VWS V14.01,2013-12-12 15:52:00,
2013-12-12 09:55:00,33.4,29.7,30.62,South,176,0.0,0.0,86,0.00,,---,0.00,VWS V14.01,2013-12-12 15:55:00,
2013-12-12 09:58:00,33.6,29.0,30.61,South,176,0.0,0.0,83,0.00,,---,0.00,VWS V14.01,2013-12-12 15:58:00,
2013-12-12 09:59:00,33.6,29.0,30.61,South,176,0.0,0.0,83,0.00,,---,0.00,VWS V14.01,2013-12-12 15:59:00,
2013-12-12 10:01:00,34.0,29.4,30.61,South,176,0.0,0.0,83,0.00,,---,0.00,VWS V14.01,2013-12-12 16:01:00,
2013-12-12 10:04:00,34.2,29.0,30.62,South,176,0.0,0.0,81,0.00,,---,0.00,VWS V14.01,2013-12-12 16:04:00,
2013-12-12 10:11:00,34.3,28.8,30.62,South,176,0.0,0.0,80,0.01,,---,0.01,VWS V14.01,2013-12-12 16:11:00,
2013-12-12 10:14:00,34.4,28.9,30.62,South,176,0.0,0.0,80,0.01,,---,0.01,VWS V14.01,2013-12-12 16:14:00,
2013-12-12 10:17:00,34.7,29.2,30.62,South,176,0.0,0.0,80,0.01,,---,0.01,VWS V14.01,2013-12-12 16:17:00,
2013-12-12 10:20:00,34.8,28.6,30.62,South,176,0.0,0.0,78,0.01,,---,0.01,VWS V14.01,2013-12-12 16:20:00,
2013-12-12 10:23:00,35.1,28.9,30.62,South,176,0.0,0.0,78,0.01,,---,0.01,VWS V14.01,2013-12-12 16:23:00,
2013-12-12 10:26:00,35.4,29.2,30.62,South,176,0.0,0.0,78,0.01,,---,0.01,VWS V14.01,2013-12-12 16:26:00,
2013-12-12 10:29:00,35.6,29.1,30.63,South,176,0.0,0.0,77,0.01,,---,0.01,VWS V14.01,2013-12-12 16:29:00,
2013-12-12 10:35:00,36.0,29.5,30.63,SW,225,0.0,4.0,77,0.01,,---,0.01,VWS V14.01,2013-12-12 16:35:00,
2013-12-12 10:38:00,36.3,30.1,30.62,SW,224,0.0,4.0,78,0.01,,---,0.01,VWS V14.01,2013-12-12 16:38:00,
2013-12-12 10:41:00,36.6,29.8,30.62,SW,225,0.0,4.0,76,0.01,,---,0.01,VWS V14.01,2013-12-12 16:41:00,
2013-12-12 10:47:00,37.2,30.0,30.61,SW,225,0.0,4.0,75,0.01,,---,0.01,VWS V14.01,2013-12-12 16:47:00,
2013-12-12 10:50:00,37.6,30.1,30.61,SW,225,0.0,4.0,74,0.01,,---,0.01,VWS V14.01,2013-12-12 16:50:00,
2013-12-12 10:53:00,37.9,30.0,30.61,SW,225,0.0,4.0,73,0.01,,---,0.01,VWS V14.01,2013-12-12 16:53:00,
2013-12-12 10:59:00,38.6,31.0,30.61,SW,228,2.0,4.0,74,0.01,,---,0.01,VWS V14.01,2013-12-12 16:59:00,
2013-12-12 11:02:00,38.6,29.7,30.61,SW,228,3.0,3.0,70,0.01,,---,0.01,VWS V14.01,2013-12-12 17:02:00,
2013-12-12 11:05:00,38.6,30.0,30.61,SW,229,0.0,3.0,71,0.01,,---,0.01,VWS V14.01,2013-12-12 17:05:00,
2013-12-12 11:08:00,38.8,30.6,30.61,WSW,240,2.0,3.0,72,0.01,,---,0.01,VWS V14.01,2013-12-12 17:08:00,
2013-12-12 11:11:00,39.2,30.6,30.60,WSW,239,3.0,3.0,71,0.01,,---,0.01,VWS V14.01,2013-12-12 17:11:00,
2013-12-12 11:17:00,39.7,30.7,30.60,SW,236,2.0,4.0,70,0.01,,---,0.01,VWS V14.01,2013-12-12 17:17:00,
2013-12-12 11:23:00,40.0,30.7,30.60,WSW,242,2.0,4.0,69,0.01,,---,0.01,VWS V14.01,2013-12-12 17:23:00,
2013-12-12 11:26:00,40.1,30.8,30.60,SW,236,0.0,4.0,69,0.01,,---,0.01,VWS V14.01,2013-12-12 17:26:00,
2013-12-12 11:29:00,40.4,31.0,30.60,WSW,240,2.0,4.0,69,0.01,,---,0.01,VWS V14.01,2013-12-12 17:29:00,
2013-12-12 11:35:00,40.6,30.5,30.59,NW,304,0.0,3.0,67,0.00,,---,0.01,VWS V14.01,2013-12-12 17:35:00,
2013-12-12 11:38:00,41.1,31.0,30.60,NW,314,0.0,3.0,67,0.00,,---,0.01,VWS V14.01,2013-12-12 17:38:00,
2013-12-12 11:44:00,41.8,31.3,30.59,SW,234,0.0,4.0,66,0.00,,---,0.01,VWS V14.01,2013-12-12 17:44:00,
2013-12-12 11:50:00,42.0,31.1,30.59,NW,306,0.0,4.0,65,0.00,,---,0.01,VWS V14.01,2013-12-12 17:50:00,
2013-12-12 11:53:00,42.2,31.3,30.59,WSW,250,1.0,4.0,65,0.00,,---,0.01,VWS V14.01,2013-12-12 17:53:00,
2013-12-12 11:56:00,42.0,31.1,30.59,West,272,0.0,4.0,65,0.00,,---,0.01,VWS V14.01,2013-12-12 17:56:00,
2013-12-12 11:59:00,42.1,31.2,30.59,WSW,246,4.0,4.0,65,0.00,,---,0.01,VWS V14.01,2013-12-12 17:59:00,
2013-12-12 12:05:00,42.4,31.1,30.58,SW,227,0.0,6.0,64,0.00,,---,0.01,VWS V14.01,2013-12-12 18:05:00,
2013-12-12 12:08:00,42.4,31.1,30.58,SW,226,0.0,6.0,64,0.00,,---,0.01,VWS V14.01,2013-12-12 18:08:00,
2013-12-12 12:11:00,42.6,31.3,30.58,SW,225,0.0,6.0,64,0.00,,---,0.01,VWS V14.01,2013-12-12 18:11:00,
2013-12-12 12:14:00,42.9,31.2,30.57,SW,233,2.0,6.0,63,0.00,,---,0.01,VWS V14.01,2013-12-12 18:14:00,
2013-12-12 12:17:00,43.0,30.9,30.57,SW,227,2.0,6.0,62,0.00,,---,0.01,VWS V14.01,2013-12-12 18:17:00,
2013-12-12 12:20:00,43.1,31.8,30.57,SW,222,0.0,6.0,64,0.00,,---,0.01,VWS V14.01,2013-12-12 18:20:00,
2013-12-12 12:23:00,43.3,31.2,30.57,SW,231,0.0,6.0,62,0.00,,---,0.01,VWS V14.01,2013-12-12 18:23:00,
2013-12-12 12:27:00,43.5,31.4,30.56,SW,230,0.0,6.0,62,0.00,,---,0.01,VWS V14.01,2013-12-12 18:27:00,
2013-12-12 12:29:00,43.6,31.5,30.56,SW,229,0.0,6.0,62,0.00,,---,0.01,VWS V14.01,2013-12-12 18:29:00,
2013-12-12 12:30:00,43.7,31.1,30.56,SW,229,0.0,0.0,61,0.00,,---,0.01,VWS V14.01,2013-12-12 18:30:00,
2013-12-12 12:33:00,43.6,30.6,30.56,SW,230,0.0,0.0,60,0.00,,---,0.01,VWS V14.01,2013-12-12 18:33:00,
2013-12-12 12:36:00,43.7,31.1,30.56,WNW,298,1.0,3.0,61,0.00,,---,0.01,VWS V14.01,2013-12-12 18:36:00,
2013-12-12 12:39:00,43.9,31.3,30.55,West,261,1.0,4.0,61,0.00,,---,0.01,VWS V14.01,2013-12-12 18:39:00,
2013-12-12 12:42:00,44.0,31.8,30.55,SW,236,5.0,6.0,62,0.00,,---,0.01,VWS V14.01,2013-12-12 18:42:00,
2013-12-12 12:45:00,44.1,32.3,30.55,SW,234,3.0,6.0,63,0.00,,---,0.01,VWS V14.01,2013-12-12 18:45:00,
2013-12-12 12:48:00,44.1,31.1,30.55,WSW,247,1.0,6.0,60,0.00,,---,0.01,VWS V14.01,2013-12-12 18:48:00,
2013-12-12 12:54:00,44.5,31.9,30.54,WSW,242,3.0,6.0,61,0.00,,---,0.01,VWS V14.01,2013-12-12 18:54:00,
2013-12-12 12:57:00,44.5,31.1,30.54,WSW,244,0.0,6.0,59,0.00,,---,0.01,VWS V14.01,2013-12-12 18:57:00,
2013-12-12 13:03:00,44.9,31.9,30.54,SW,233,1.0,6.0,60,0.00,,---,0.01,VWS V14.01,2013-12-12 19:03:00,
2013-12-12 13:09:00,45.0,32.0,30.54,SW,234,5.0,6.0,60,0.00,,---,0.01,VWS V14.01,2013-12-12 19:09:00,
2013-12-12 13:12:00,45.1,31.6,30.53,SW,228,5.0,7.0,59,0.00,,---,0.01,VWS V14.01,2013-12-12 19:12:00,
2013-12-12 13:15:00,45.2,31.7,30.53,SW,234,5.0,7.0,59,0.00,,---,0.01,VWS V14.01,2013-12-12 19:15:00,
2013-12-12 13:21:00,45.3,31.8,30.52,WSW,247,0.0,7.0,59,0.00,,---,0.01,VWS V14.01,2013-12-12 19:21:00,
2013-12-12 13:24:00,45.4,31.1,30.52,SW,231,1.0,8.0,57,0.00,,---,0.01,VWS V14.01,2013-12-12 19:24:00,
2013-12-12 13:27:00,45.6,31.7,30.52,SW,231,1.0,8.0,58,0.00,,---,0.01,VWS V14.01,2013-12-12 19:27:00,
2013-12-12 13:29:00,45.6,31.7,30.52,SW,215,0.0,8.0,58,0.00,,---,0.01,VWS V14.01,2013-12-12 19:29:00,
2013-12-12 13:33:00,45.5,30.7,30.51,West,273,0.0,1.0,56,0.00,,---,0.01,VWS V14.01,2013-12-12 19:33:00,
2013-12-12 13:36:00,45.4,31.1,30.51,West,261,1.0,2.0,57,0.00,,---,0.01,VWS V14.01,2013-12-12 19:36:00,
2013-12-12 13:39:00,45.8,31.5,30.50,West,261,0.0,2.0,57,0.00,,---,0.01,VWS V14.01,2013-12-12 19:39:00,
2013-12-12 13:42:00,46.4,32.4,30.50,West,259,0.0,2.0,58,0.00,,---,0.01,VWS V14.01,2013-12-12 19:42:00,
2013-12-12 13:45:00,46.8,32.4,30.50,SW,224,3.0,4.0,57,0.00,,---,0.01,VWS V14.01,2013-12-12 19:45:00,
2013-12-12 13:51:00,47.0,32.1,30.49,WSW,256,3.0,4.0,56,0.00,,---,0.01,VWS V14.01,2013-12-12 19:51:00,
2013-12-12 13:54:00,46.5,30.3,30.49,WSW,246,0.0,4.0,53,0.00,,---,0.01,VWS V14.01,2013-12-12 19:54:00,
2013-12-12 13:57:00,46.7,31.4,30.49,WSW,245,0.0,4.0,55,0.00,,---,0.01,VWS V14.01,2013-12-12 19:57:00,
2013-12-12 13:59:00,46.8,30.6,30.49,WSW,245,0.0,4.0,53,0.00,,---,0.01,VWS V14.01,2013-12-12 19:59:00,
2013-12-12 14:03:00,47.5,31.2,30.48,WSW,247,0.0,0.0,53,0.00,,---,0.01,VWS V14.01,2013-12-12 20:03:00,
2013-12-12 14:06:00,47.7,31.0,30.47,WSW,247,0.0,0.0,52,0.00,,---,0.01,VWS V14.01,2013-12-12 20:06:00,
2013-12-12 14:12:00,48.1,30.8,30.47,WSW,246,0.0,0.0,51,0.00,,---,0.01,VWS V14.01,2013-12-12 20:12:00,
2013-12-12 14:15:00,48.3,31.0,30.47,WSW,246,0.0,0.0,51,0.00,,---,0.01,VWS V14.01,2013-12-12 20:15:00,
2013-12-12 14:18:00,48.4,30.6,30.47,WSW,243,0.0,3.0,50,0.00,,---,0.01,VWS V14.01,2013-12-12 20:18:00,
2013-12-12 14:24:00,48.6,31.3,30.47,South,178,3.0,4.0,51,0.00,,---,0.01,VWS V14.01,2013-12-12 20:24:00,
2013-12-12 14:26:00,45.8,30.1,30.45,South,180,3.0,6.0,54,0.00,,---,0.01,VWS V14.01,2013-12-12 20:26:00,
2013-12-12 14:27:00,48.5,30.2,30.47,South,175,0.0,6.0,49,0.00,,---,0.01,VWS V14.01,2013-12-12 20:27:00,
2013-12-12 14:29:00,45.6,30.4,30.44,South,188,4.0,6.0,55,0.00,,---,0.01,VWS V14.01,2013-12-12 20:29:00,
2013-12-12 14:30:00,48.4,31.6,30.46,South,188,2.0,5.0,52,0.00,,---,0.01,VWS V14.01,2013-12-12 20:30:00,
2013-12-12 14:36:00,47.7,30.0,30.45,SSW,211,3.0,6.0,50,0.00,,---,0.01,VWS V14.01,2013-12-12 20:36:00,
2013-12-12 14:39:00,47.1,29.9,30.45,SSW,209,0.0,6.0,51,0.00,,---,0.01,VWS V14.01,2013-12-12 20:39:00,
2013-12-12 14:43:00,46.8,29.6,30.44,SSW,196,0.0,6.0,51,0.00,,---,0.01,VWS V14.01,2013-12-12 20:43:00,
2013-12-12 14:46:00,46.7,29.5,30.44,SSW,196,0.0,6.0,51,0.00,,---,0.01,VWS V14.01,2013-12-12 20:46:00,
2013-12-12 14:49:00,46.7,30.0,30.44,SSW,196,0.0,6.0,52,0.00,,---,0.01,VWS V14.01,2013-12-12 20:49:00,
2013-12-12 14:52:00,46.6,30.4,30.44,SSW,196,0.0,6.0,53,0.00,,---,0.01,VWS V14.01,2013-12-12 20:52:00,
2013-12-12 14:53:00,45.5,30.3,30.44,SSE,163,0.0,4.0,55,0.00,,---,0.01,VWS V14.01,2013-12-12 20:53:00,
2013-12-12 14:55:00,46.6,30.4,30.44,SSW,196,0.0,6.0,53,0.00,,---,0.01,VWS V14.01,2013-12-12 20:55:00,
2013-12-12 14:56:00,45.6,30.4,30.44,SSE,163,2.0,4.0,55,0.00,,---,0.01,VWS V14.01,2013-12-12 20:56:00,
2013-12-12 14:58:00,46.9,30.2,30.45,SSW,196,0.0,6.0,52,0.00,,---,0.01,VWS V14.01,2013-12-12 20:58:00,
2013-12-12 14:59:00,46.9,30.7,30.45,SSW,196,0.0,6.0,53,0.00,,---,0.01,VWS V14.01,2013-12-12 20:59:00,
2013-12-12 15:02:00,45.6,30.4,30.44,SSE,153,1.0,5.0,55,0.00,,---,0.01,VWS V14.01,2013-12-12 21:02:00,
2013-12-12 15:04:00,47.0,30.3,30.45,SSE,164,0.0,4.0,52,0.00,,---,0.01,VWS V14.01,2013-12-12 21:04:00,
2013-12-12 15:10:00,46.7,30.0,30.45,South,170,2.0,6.0,52,0.00,,---,0.01,VWS V14.01,2013-12-12 21:10:00,
2013-12-12 15:11:00,45.0,29.8,30.43,SSE,167,0.0,5.0,55,0.00,,---,0.01,VWS V14.01,2013-12-12 21:11:00,
2013-12-12 15:13:00,46.5,29.8,30.45,South,169,2.0,6.0,52,0.00,,---,0.01,VWS V14.01,2013-12-12 21:13:00,
2013-12-12 15:16:00,46.4,29.8,30.45,South,176,3.0,6.0,52,0.00,,---,0.01,VWS V14.01,2013-12-12 21:16:00,
2013-12-12 15:22:00,46.0,29.8,30.45,South,179,1.0,6.0,53,0.00,,---,0.01,VWS V14.01,2013-12-12 21:22:00,
2013-12-12 15:29:00,45.6,30.4,30.44,South,178,0.0,6.0,55,0.00,,---,0.01,VWS V14.01,2013-12-12 21:29:00,
2013-12-12 15:30:00,44.5,30.2,30.43,SSE,167,3.0,5.0,57,0.00,,---,0.01,VWS V14.01,2013-12-12 21:30:00,
2013-12-12 15:34:00,45.5,31.2,30.44,South,177,0.0,3.0,57,0.00,,---,0.01,VWS V14.01,2013-12-12 21:34:00,
2013-12-12 15:37:00,45.6,30.4,30.44,South,175,0.0,4.0,55,0.00,,---,0.01,VWS V14.01,2013-12-12 21:37:00,
2013-12-12 15:40:00,45.6,30.4,30.44,South,171,3.0,4.0,55,0.00,,---,0.01,VWS V14.01,2013-12-12 21:40:00,
2013-12-12 15:43:00,45.6,29.9,30.44,SSE,168,1.0,4.0,54,0.00,,---,0.01,VWS V14.01,2013-12-12 21:43:00,
2013-12-12 15:46:00,45.5,30.7,30.44,SSE,165,1.0,4.0,56,0.00,,---,0.01,VWS V14.01,2013-12-12 21:46:00,
2013-12-12 15:49:00,45.4,30.2,30.44,SSE,165,0.0,4.0,55,0.00,,---,0.01,VWS V14.01,2013-12-12 21:49:00,
2013-12-12 15:58:00,45.6,30.4,30.44,SSE,152,2.0,5.0,55,0.00,,---,0.01,VWS V14.01,2013-12-12 21:58:00,
2013-12-12 15:59:00,45.6,30.4,30.44,SSE,150,2.0,5.0,55,0.00,,---,0.01,VWS V14.01,2013-12-12 21:59:00,
2013-12-12 16:04:00,45.4,30.6,30.44,SSE,157,1.0,5.0,56,0.00,,---,0.01,VWS V14.01,2013-12-12 22:04:00,
2013-12-12 16:07:00,45.2,30.5,30.44,SSE,158,1.0,5.0,56,0.00,,---,0.01,VWS V14.01,2013-12-12 22:07:00,
2013-12-12 16:13:00,44.8,29.6,30.43,SSE,163,2.0,5.0,55,0.00,,---,0.01,VWS V14.01,2013-12-12 22:13:00,
2013-12-12 16:15:00,43.1,29.8,30.42,SSE,162,3.0,4.0,59,0.00,,---,0.01,VWS V14.01,2013-12-12 22:15:00,
2013-12-12 16:16:00,44.6,29.5,30.43,SSE,165,1.0,5.0,55,0.00,,---,0.01,VWS V14.01,2013-12-12 22:16:00,
2013-12-12 16:19:00,44.5,29.4,30.43,SSE,163,3.0,5.0,55,0.00,,---,0.01,VWS V14.01,2013-12-12 22:19:00,
2013-12-12 16:25:00,44.5,29.8,30.43,SSE,167,0.0,5.0,56,0.00,,---,0.01,VWS V14.01,2013-12-12 22:25:00,
2013-12-12 16:28:00,44.5,30.2,30.43,SSE,167,0.0,5.0,57,0.00,,---,0.01,VWS V14.01,2013-12-12 22:28:00,
2013-12-12 16:30:00,42.5,29.6,30.42,SSE,161,0.0,4.0,60,0.00,,---,0.01,VWS V14.01,2013-12-12 22:30:00,
2013-12-12 16:33:00,42.3,29.8,30.41,SSE,161,0.0,2.0,61,0.00,,---,0.01,VWS V14.01,2013-12-12 22:33:00,
2013-12-12 16:34:00,44.3,30.0,30.42,SSE,163,1.0,4.0,57,0.00,,---,0.01,VWS V14.01,2013-12-12 22:34:00,
2013-12-12 16:37:00,44.2,30.0,30.42,SSE,161,1.0,4.0,57,0.00,,---,0.01,VWS V14.01,2013-12-12 22:37:00,
2013-12-12 16:40:00,44.1,29.9,30.42,SSE,160,4.0,5.0,57,0.00,,---,0.01,VWS V14.01,2013-12-12 22:40:00,
2013-12-12 16:43:00,44.0,29.8,30.42,SSE,160,0.0,5.0,57,0.00,,---,0.01,VWS V14.01,2013-12-12 22:43:00,
2013-12-12 16:45:00,41.6,30.0,30.41,SSE,160,1.0,3.0,63,0.00,,---,0.01,VWS V14.01,2013-12-12 22:45:00,
2013-12-12 16:46:00,44.0,29.8,30.42,SSE,160,0.0,5.0,57,0.00,,---,0.01,VWS V14.01,2013-12-12 22:46:00,
2013-12-12 16:49:00,43.8,30.0,30.42,SSE,160,0.0,5.0,58,0.00,,---,0.01,VWS V14.01,2013-12-12 22:49:00,
2013-12-12 16:52:00,43.7,29.9,30.43,SSE,161,0.0,5.0,58,0.00,,---,0.01,VWS V14.01,2013-12-12 22:52:00,
2013-12-12 16:55:00,43.6,29.8,30.42,SSE,159,1.0,5.0,58,0.00,,---,0.01,VWS V14.01,2013-12-12 22:55:00,
2013-12-12 16:59:00,43.6,30.2,30.42,SSE,159,1.0,5.0,59,0.00,,---,0.01,VWS V14.01,2013-12-12 22:59:00,
2013-12-12 17:02:00,43.4,29.6,30.42,SSE,160,0.0,4.0,58,0.00,,---,0.01,VWS V14.01,2013-12-12 23:02:00,
2013-12-12 17:05:00,43.4,30.0,30.42,SSE,160,0.0,4.0,59,0.00,,---,0.01,VWS V14.01,2013-12-12 23:05:00,
2013-12-12 17:09:00,40.5,30.4,30.39,SSE,160,0.0,2.0,67,0.00,,---,0.01,VWS V14.01,2013-12-12 23:09:00,
2013-12-12 17:11:00,43.2,29.9,30.42,SSE,160,2.0,4.0,59,0.00,,---,0.01,VWS V14.01,2013-12-12 23:11:00,
2013-12-12 17:12:00,40.3,30.6,30.39,SSE,160,0.0,2.0,68,0.00,,---,0.01,VWS V14.01,2013-12-12 23:12:00,
2013-12-12 17:17:00,43.0,29.7,30.42,SSE,161,2.0,4.0,59,0.00,,---,0.01,VWS V14.01,2013-12-12 23:17:00,
2013-12-12 17:20:00,42.9,30.0,30.42,SSE,161,0.0,4.0,60,0.00,,---,0.01,VWS V14.01,2013-12-12 23:20:00,
2013-12-12 17:24:00,40.2,30.5,30.39,SSE,160,0.0,3.0,68,0.00,,---,0.01,VWS V14.01,2013-12-12 23:24:00,
2013-12-12 17:26:00,42.6,29.7,30.42,SSE,161,2.0,4.0,60,0.00,,---,0.01,VWS V14.01,2013-12-12 23:26:00,
2013-12-12 17:29:00,42.5,29.6,30.42,SSE,161,0.0,0.0,60,0.00,,---,0.01,VWS V14.01,2013-12-12 23:29:00,
2013-12-12 17:38:00,42.0,29.9,30.41,SSE,160,1.0,3.0,62,0.00,,---,0.01,VWS V14.01,2013-12-12 23:38:00,
2013-12-12 17:41:00,41.8,30.1,30.41,SSE,160,0.0,3.0,63,0.00,,---,0.01,VWS V14.01,2013-12-12 23:41:00,
2013-12-12 17:47:00,41.5,29.9,30.41,SSE,160,0.0,3.0,63,0.00,,---,0.01,VWS V14.01,2013-12-12 23:47:00,
2013-12-12 17:50:00,41.4,29.8,30.41,SSE,160,1.0,3.0,63,0.00,,---,0.01,VWS V14.01,2013-12-12 23:50:00,
2013-12-12 17:53:00,41.3,30.1,30.40,SSE,160,0.0,3.0,64,0.00,,---,0.01,VWS V14.01,2013-12-12 23:53:00,
2013-12-12 17:56:00,41.1,30.2,30.40,SSE,160,0.0,3.0,65,0.00,,---,0.01,VWS V14.01,2013-12-12 23:56:00,
2013-12-12 17:59:00,41.0,30.1,30.40,SSE,160,0.0,3.0,65,0.00,,---,0.01,VWS V14.01,2013-12-12 23:59:00,
2013-12-12 18:05:00,40.6,30.5,30.40,SSE,160,0.0,2.0,67,0.00,,---,0.01,VWS V14.01,2013-12-13 00:05:00,
2013-12-12 18:14:00,40.2,30.5,30.39,SSE,160,0.0,2.0,68,0.00,,---,0.01,VWS V14.01,2013-12-13 00:14:00,
2013-12-12 18:17:00,40.2,30.1,30.38,SSE,160,0.0,3.0,67,0.00,,---,0.01,VWS V14.01,2013-12-13 00:17:00,
2013-12-12 18:20:00,40.2,30.1,30.39,SSE,160,0.0,3.0,67,0.00,,---,0.01,VWS V14.01,2013-12-13 00:20:00,
2013-12-12 18:26:00,40.1,30.4,30.39,SSE,160,0.0,3.0,68,0.00,,---,0.01,VWS V14.01,2013-12-13 00:26:00,
2013-12-12 18:29:00,39.9,30.2,30.39,SSE,160,0.0,0.0,68,0.00,,---,0.01,VWS V14.01,2013-12-13 00:29:00,
2013-12-12 18:32:00,39.8,30.1,30.39,SSE,160,0.0,0.0,68,0.00,,---,0.01,VWS V14.01,2013-12-13 00:32:00,
2013-12-12 18:34:00,39.4,30.8,30.39,SSE,160,0.0,0.0,71,0.00,,---,0.01,VWS V14.01,2013-12-13 00:34:00,
2013-12-12 18:35:00,39.7,30.4,30.39,SSE,160,0.0,0.0,69,0.00,,---,0.01,VWS V14.01,2013-12-13 00:35:00,
2013-12-12 18:41:00,39.6,30.3,30.39,SSE,160,0.0,0.0,69,0.00,,---,0.01,VWS V14.01,2013-12-13 00:41:00,
2013-12-12 18:44:00,39.6,29.9,30.39,SSE,160,0.0,0.0,68,0.00,,---,0.01,VWS V14.01,2013-12-13 00:44:00,
2013-12-12 18:50:00,39.6,30.3,30.40,SSE,160,0.0,0.0,69,0.00,,---,0.01,VWS V14.01,2013-12-13 00:50:00,
2013-12-12 18:56:00,39.7,30.7,30.40,SSE,160,0.0,0.0,70,0.00,,---,0.01,VWS V14.01,2013-12-13 00:56:00,
2013-12-12 18:59:00,39.6,30.6,30.40,SSE,160,0.0,0.0,70,0.00,,---,0.01,VWS V14.01,2013-12-13 00:59:00,
2013-12-12 19:00:00,39.4,30.8,30.38,SSE,160,0.0,0.0,71,0.00,,---,0.01,VWS V14.01,2013-12-13 01:00:00,
2013-12-12 19:03:00,39.6,30.3,30.40,SSE,160,0.0,0.0,69,0.00,,---,0.01,VWS V14.01,2013-12-13 01:03:00,
2013-12-12 19:06:00,39.5,30.2,30.39,SSE,160,0.0,0.0,69,0.00,,---,0.01,VWS V14.01,2013-12-13 01:06:00,
2013-12-12 19:09:00,39.5,30.2,30.40,SSE,160,0.0,0.0,69,0.00,,---,0.01,VWS V14.01,2013-12-13 01:09:00,
2013-12-12 19:10:00,39.0,31.1,30.37,SSE,160,0.0,0.0,73,0.00,,---,0.01,VWS V14.01,2013-12-13 01:10:00,
2013-12-12 19:12:00,39.4,30.1,30.39,SSE,160,0.0,0.0,69,0.00,,---,0.01,VWS V14.01,2013-12-13 01:12:00,
2013-12-12 19:15:00,39.5,30.2,30.40,SSE,160,0.0,0.0,69,0.00,,---,0.01,VWS V14.01,2013-12-13 01:15:00,
2013-12-12 19:18:00,39.4,30.1,30.40,SSE,160,0.0,0.0,69,0.00,,---,0.01,VWS V14.01,2013-12-13 01:18:00,
2013-12-12 19:21:00,39.5,30.2,30.40,SSE,160,0.0,0.0,69,0.00,,---,0.01,VWS V14.01,2013-12-13 01:21:00,
2013-12-12 19:24:00,39.5,30.5,30.39,SSE,160,0.0,1.0,70,0.00,,---,0.01,VWS V14.01,2013-12-13 01:24:00,
2013-12-12 19:27:00,39.5,30.5,30.39,SSE,160,1.0,2.0,70,0.00,,---,0.01,VWS V14.01,2013-12-13 01:27:00,
2013-12-12 19:28:00,38.6,31.0,30.37,SSE,160,0.0,0.0,74,0.00,,---,0.01,VWS V14.01,2013-12-13 01:28:00,
2013-12-12 19:29:00,39.5,30.9,30.39,SSE,160,0.0,2.0,71,0.00,,---,0.01,VWS V14.01,2013-12-13 01:29:00,
2013-12-12 19:31:00,38.5,31.3,30.36,SSE,160,0.0,0.0,75,0.00,,---,0.01,VWS V14.01,2013-12-13 01:31:00,
2013-12-12 19:36:00,39.4,30.4,30.39,SSE,160,0.0,0.0,70,0.00,,---,0.01,VWS V14.01,2013-12-13 01:36:00,
2013-12-12 19:39:00,39.3,30.4,30.39,SSE,160,0.0,0.0,70,0.00,,---,0.01,VWS V14.01,2013-12-13 01:39:00,
2013-12-12 19:42:00,39.4,30.4,30.39,SSE,160,0.0,0.0,70,0.00,,---,0.01,VWS V14.01,2013-12-13 01:42:00,
2013-12-12 19:48:00,39.5,30.9,30.38,SSE,160,0.0,0.0,71,0.00,,---,0.01,VWS V14.01,2013-12-13 01:48:00,
2013-12-12 19:49:00,38.5,31.3,30.35,SSE,160,0.0,0.0,75,0.00,,---,0.01,VWS V14.01,2013-12-13 01:49:00,
2013-12-12 19:51:00,39.5,30.9,30.38,SSE,160,0.0,0.0,71,0.00,,---,0.01,VWS V14.01,2013-12-13 01:51:00,
2013-12-12 19:54:00,39.5,30.9,30.38,SSE,160,0.0,0.0,71,0.00,,---,0.01,VWS V14.01,2013-12-13 01:54:00,
2013-12-12 19:57:00,39.5,30.9,30.38,SSE,160,0.0,0.0,71,0.00,,---,0.01,VWS V14.01,2013-12-13 01:57:00,
2013-12-12 20:00:00,39.3,31.0,30.38,SSE,160,0.0,0.0,72,0.00,,---,0.01,VWS V14.01,2013-12-13 02:00:00,
2013-12-12 20:06:00,39.2,31.0,30.38,SSE,160,0.0,0.0,72,0.00,,---,0.01,VWS V14.01,2013-12-13 02:06:00,
2013-12-12 20:12:00,38.9,31.0,30.37,SSE,160,0.0,0.0,73,0.00,,---,0.01,VWS V14.01,2013-12-13 02:12:00,
2013-12-12 20:15:00,38.8,30.9,30.37,SSE,160,0.0,0.0,73,0.00,,---,0.01,VWS V14.01,2013-12-13 02:15:00,
2013-12-12 20:18:00,38.8,31.2,30.37,SSE,160,0.0,0.0,74,0.00,,---,0.01,VWS V14.01,2013-12-13 02:18:00,
2013-12-12 20:21:00,38.8,31.2,30.37,SSE,160,0.0,0.0,74,0.00,,---,0.01,VWS V14.01,2013-12-13 02:21:00,
2013-12-12 20:29:00,38.6,31.4,30.36,SSE,160,0.0,0.0,75,0.00,,---,0.01,VWS V14.01,2013-12-13 02:29:00,
2013-12-12 20:36:00,38.4,31.2,30.36,SSE,160,0.0,0.0,75,0.00,,---,0.01,VWS V14.01,2013-12-13 02:36:00,
2013-12-12 20:39:00,38.3,31.1,30.35,SSE,160,0.0,0.0,75,0.00,,---,0.01,VWS V14.01,2013-12-13 02:39:00,
2013-12-12 20:42:00,38.4,31.2,30.35,SSE,160,0.0,0.0,75,0.00,,---,0.01,VWS V14.01,2013-12-13 02:42:00,
2013-12-12 20:51:00,38.5,31.0,30.34,SSE,160,0.0,0.0,74,0.00,,---,0.01,VWS V14.01,2013-12-13 02:51:00,
2013-12-12 20:54:00,38.6,31.0,30.35,SSE,160,0.0,0.0,74,0.00,,---,0.01,VWS V14.01,2013-12-13 02:54:00,
2013-12-12 20:57:00,38.6,31.0,30.35,SSE,160,0.0,0.0,74,0.00,,---,0.01,VWS V14.01,2013-12-13 02:57:00,
2013-12-12 21:00:00,38.6,31.0,30.35,SSE,160,0.0,0.0,74,0.00,,---,0.01,VWS V14.01,2013-12-13 03:00:00,
2013-12-12 21:06:00,38.6,31.0,30.35,SSE,160,0.0,0.0,74,0.00,,---,0.01,VWS V14.01,2013-12-13 03:06:00,
2013-12-12 21:09:00,38.6,31.0,30.35,SSE,160,0.0,0.0,74,0.00,,---,0.01,VWS V14.01,2013-12-13 03:09:00,
2013-12-12 21:16:00,38.5,31.6,30.35,SSE,160,0.0,0.0,76,0.00,,---,0.01,VWS V14.01,2013-12-13 03:16:00,
2013-12-12 21:19:00,38.4,31.5,30.35,SSE,160,0.0,0.0,76,0.00,,---,0.01,VWS V14.01,2013-12-13 03:19:00,
2013-12-12 21:25:00,38.3,31.4,30.34,SSE,160,0.0,0.0,76,0.00,,---,0.01,VWS V14.01,2013-12-13 03:25:00,
2013-12-12 21:28:00,38.4,31.5,30.34,SSE,160,0.0,0.0,76,0.00,,---,0.01,VWS V14.01,2013-12-13 03:28:00,
2013-12-12 21:29:00,38.4,31.5,30.34,SSE,160,0.0,0.0,76,0.00,,---,0.01,VWS V14.01,2013-12-13 03:29:00,
2013-12-12 21:31:00,38.5,31.6,30.34,SSE,160,0.0,0.0,76,0.00,,---,0.01,VWS V14.01,2013-12-13 03:31:00,
2013-12-12 21:34:00,38.6,32.0,30.34,SSE,160,0.0,0.0,77,0.00,,---,0.01,VWS V14.01,2013-12-13 03:34:00,
2013-12-12 21:40:00,38.7,32.1,30.33,SSE,160,0.0,0.0,77,0.00,,---,0.01,VWS V14.01,2013-12-13 03:40:00,
2013-12-12 21:43:00,38.7,32.1,30.33,SSE,160,0.0,0.0,77,0.00,,---,0.01,VWS V14.01,2013-12-13 03:43:00,
2013-12-12 21:46:00,38.7,32.1,30.33,SSE,160,0.0,0.0,77,0.00,,---,0.01,VWS V14.01,2013-12-13 03:46:00,
2013-12-12 21:49:00,38.8,32.2,30.33,SSE,160,0.0,0.0,77,0.00,,---,0.01,VWS V14.01,2013-12-13 03:49:00,
2013-12-12 21:52:00,38.8,32.2,30.32,SSE,160,0.0,0.0,77,0.00,,---,0.01,VWS V14.01,2013-12-13 03:52:00,
2013-12-12 21:58:00,38.8,31.9,30.32,SSE,160,0.0,0.0,76,0.00,,---,0.01,VWS V14.01,2013-12-13 03:58:00,
2013-12-12 21:59:00,38.8,31.9,30.32,SSE,160,0.0,0.0,76,0.00,,---,0.01,VWS V14.01,2013-12-13 03:59:00,
2013-12-12 22:01:00,38.8,31.9,30.32,SSE,160,0.0,0.0,76,0.00,,---,0.01,VWS V14.01,2013-12-13 04:01:00,
2013-12-12 22:02:00,38.9,32.3,30.30,SSE,160,0.0,2.0,77,0.00,,---,0.01,VWS V14.01,2013-12-13 04:02:00,
2013-12-12 22:05:00,38.8,32.2,30.30,SSE,160,0.0,2.0,77,0.00,,---,0.01,VWS V14.01,2013-12-13 04:05:00,
2013-12-12 22:07:00,38.8,32.2,30.32,SSE,160,0.0,0.0,77,0.00,,---,0.01,VWS V14.01,2013-12-13 04:07:00,
2013-12-12 22:08:00,38.8,32.2,30.29,SSE,160,0.0,3.0,77,0.00,,---,0.01,VWS V14.01,2013-12-13 04:08:00,
2013-12-12 22:11:00,38.8,32.2,30.29,SSE,159,1.0,3.0,77,0.00,,---,0.01,VWS V14.01,2013-12-13 04:11:00,
2013-12-12 22:13:00,38.7,31.8,30.32,SSE,160,0.0,0.0,76,0.00,,---,0.01,VWS V14.01,2013-12-13 04:13:00,
2013-12-12 22:14:00,38.9,32.3,30.29,SSE,159,1.0,3.0,77,0.00,,---,0.01,VWS V14.01,2013-12-13 04:14:00,
2013-12-12 22:16:00,38.8,31.9,30.32,SSE,160,0.0,0.0,76,0.00,,---,0.01,VWS V14.01,2013-12-13 04:16:00,
2013-12-12 22:17:00,39.0,32.4,30.29,SSE,159,5.0,5.0,77,0.00,,---,0.01,VWS V14.01,2013-12-13 04:17:00,
2013-12-12 22:19:00,38.8,31.9,30.32,SSE,160,0.0,0.0,76,0.00,,---,0.01,VWS V14.01,2013-12-13 04:19:00,
2013-12-12 22:20:00,39.3,32.7,30.29,SSE,157,2.0,5.0,77,0.00,,---,0.01,VWS V14.01,2013-12-13 04:20:00,
2013-12-12 22:22:00,38.8,31.9,30.32,SSE,160,0.0,0.0,76,0.00,,---,0.01,VWS V14.01,2013-12-13 04:22:00,
2013-12-12 22:23:00,39.5,32.9,30.28,SSE,155,2.0,5.0,77,0.00,,---,0.01,VWS V14.01,2013-12-13 04:23:00,
2013-12-12 22:25:00,38.9,32.0,30.32,SSE,160,0.0,0.0,76,0.00,,---,0.01,VWS V14.01,2013-12-13 04:25:00,
2013-12-12 22:26:00,39.6,32.7,30.28,SSE,154,2.0,5.0,76,0.00,,---,0.01,VWS V14.01,2013-12-13 04:26:00,
2013-12-12 22:28:00,38.9,32.0,30.32,SSE,160,0.0,0.0,76,0.00,,---,0.01,VWS V14.01,2013-12-13 04:28:00,
2013-12-12 22:29:00,38.9,32.3,30.32,SSE,160,0.0,0.0,77,0.00,,---,0.01,VWS V14.01,2013-12-13 04:29:00,
2013-12-12 22:30:00,39.7,32.8,30.28,SSE,153,2.0,5.0,76,0.00,,---,0.01,VWS V14.01,2013-12-13 04:30:00,
2013-12-12 22:32:00,39.7,32.8,30.27,SSE,153,1.0,4.0,76,0.00,,---,0.01,VWS V14.01,2013-12-13 04:32:00,
2013-12-12 22:34:00,38.8,32.2,30.31,SSE,160,0.0,0.0,77,0.00,,---,0.01,VWS V14.01,2013-12-13 04:34:00,
2013-12-12 22:35:00,39.6,32.7,30.27,SSE,153,1.0,4.0,76,0.00,,---,0.01,VWS V14.01,2013-12-13 04:35:00,
2013-12-12 22:37:00,38.8,32.2,30.31,SSE,160,0.0,0.0,77,0.00,,---,0.01,VWS V14.01,2013-12-13 04:37:00,
2013-12-12 22:39:00,39.7,32.8,30.26,SSE,152,3.0,4.0,76,0.00,,---,0.01,VWS V14.01,2013-12-13 04:39:00,
2013-12-12 22:40:00,38.8,32.2,30.31,SSE,160,0.0,0.0,77,0.00,,---,0.01,VWS V14.01,2013-12-13 04:40:00,
2013-12-12 22:42:00,39.7,32.8,30.26,SSE,149,1.0,5.0,76,0.00,,---,0.01,VWS V14.01,2013-12-13 04:42:00,
2013-12-12 22:45:00,39.7,32.8,30.25,SE,144,3.0,5.0,76,0.00,,---,0.01,VWS V14.01,2013-12-13 04:45:00,
2013-12-12 22:46:00,38.8,32.2,30.31,SSE,160,1.0,2.0,77,0.00,,---,0.01,VWS V14.01,2013-12-13 04:46:00,
2013-12-12 22:48:00,39.7,32.8,30.25,SE,143,2.0,5.0,76,0.00,,---,0.01,VWS V14.01,2013-12-13 04:48:00,
2013-12-12 22:49:00,38.9,32.3,30.31,SSE,160,0.0,2.0,77,0.00,,---,0.01,VWS V14.01,2013-12-13 04:49:00,
2013-12-12 22:51:00,39.7,32.8,30.26,SSE,153,1.0,5.0,76,0.00,,---,0.01,VWS V14.01,2013-12-13 04:51:00,
2013-12-12 22:52:00,39.0,32.4,30.31,SSE,160,2.0,2.0,77,0.00,,---,0.01,VWS V14.01,2013-12-13 04:52:00,
2013-12-12 22:54:00,39.8,32.9,30.26,SSE,159,0.0,5.0,76,0.00,,---,0.01,VWS V14.01,2013-12-13 04:54:00,
2013-12-12 22:55:00,39.0,32.4,30.30,SSE,160,0.0,2.0,77,0.00,,---,0.01,VWS V14.01,2013-12-13 04:55:00,
2013-12-12 22:57:00,39.9,33.0,30.26,SSE,161,2.0,5.0,76,0.00,,---,0.01,VWS V14.01,2013-12-13 04:57:00,
2013-12-12 22:58:00,38.9,32.3,30.30,SSE,160,0.0,2.0,77,0.00,,---,0.01,VWS V14.01,2013-12-13 04:58:00,
2013-12-12 23:00:00,40.0,33.1,30.26,South,170,4.0,5.0,76,0.00,,---,0.01,VWS V14.01,2013-12-13 05:00:00,
2013-12-12 23:03:00,40.3,33.3,30.26,SSE,167,3.0,8.0,76,0.00,,---,0.01,VWS V14.01,2013-12-13 05:03:00,
2013-12-12 23:06:00,40.6,33.3,30.26,South,171,2.0,8.0,75,0.00,,---,0.01,VWS V14.01,2013-12-13 05:06:00,
2013-12-12 23:09:00,40.9,33.3,30.26,South,172,3.0,8.0,74,0.00,,---,0.01,VWS V14.01,2013-12-13 05:09:00,
2013-12-12 23:12:00,41.1,33.5,30.26,South,173,1.0,8.0,74,0.00,,---,0.01,VWS V14.01,2013-12-13 05:12:00,
2013-12-12 23:15:00,41.3,33.3,30.26,South,185,3.0,8.0,73,0.00,,---,0.01,VWS V14.01,2013-12-13 05:15:00,
2013-12-12 23:18:00,41.4,33.4,30.26,South,182,2.0,8.0,73,0.00,,---,0.01,VWS V14.01,2013-12-13 05:18:00,
2013-12-12 23:21:00,41.4,33.4,30.26,South,180,1.0,8.0,73,0.00,,---,0.01,VWS V14.01,2013-12-13 05:21:00,
2013-12-12 23:24:00,41.4,33.4,30.26,South,177,0.0,8.0,73,0.00,,---,0.01,VWS V14.01,2013-12-13 05:24:00,
2013-12-12 23:27:00,41.2,33.2,30.26,South,185,2.0,8.0,73,0.00,,---,0.01,VWS V14.01,2013-12-13 05:27:00,
2013-12-12 23:30:00,41.1,33.5,30.26,South,189,1.0,8.0,74,0.00,,---,0.01,VWS V14.01,2013-12-13 05:30:00,
2013-12-12 23:33:00,40.9,33.3,30.26,South,188,0.0,3.0,74,0.00,,---,0.01,VWS V14.01,2013-12-13 05:33:00,
2013-12-12 23:36:00,40.8,33.2,30.26,South,188,0.0,3.0,74,0.00,,---,0.01,VWS V14.01,2013-12-13 05:36:00,
2013-12-12 23:39:00,40.7,33.1,30.26,South,181,0.0,3.0,74,0.00,,---,0.01,VWS V14.01,2013-12-13 05:39:00,
2013-12-12 23:42:00,40.7,33.1,30.26,South,179,1.0,3.0,74,0.00,,---,0.01,VWS V14.01,2013-12-13 05:42:00,
2013-12-12 23:45:00,40.7,33.1,30.26,South,179,0.0,3.0,74,0.00,,---,0.01,VWS V14.01,2013-12-13 05:45:00,
2013-12-12 23:48:00,40.6,33.3,30.26,South,179,0.0,3.0,75,0.00,,---,0.01,VWS V14.01,2013-12-13 05:48:00,
2013-12-12 23:51:00,40.5,33.2,30.26,South,179,0.0,3.0,75,0.00,,---,0.01,VWS V14.01,2013-12-13 05:51:00,
2013-12-12 23:54:00,40.5,33.2,30.26,South,179,0.0,3.0,75,0.00,,---,0.01,VWS V14.01,2013-12-13 05:54:00,
2013-12-12 23:57:00,40.3,33.0,30.26,South,179,0.0,3.0,75,0.00,,---,0.01,VWS V14.01,2013-12-13 05:57:00,